Regional Weather Roundup
Issued by NWS

Home | Current Version | Previous Version | Text Only | Print | Product List | Glossary On
Versions: 1 2 3 4 5 6 7 8 9 10 11 12 13 14 15 16 17 18 19 20 21 22 23 24 25 26 27 28 29 30 31 32 33 34 35 36 37 38 39 40 41 42 43 44 45 46 47 48 49 50
712
ASUS44 KFWD 232215
RWRTX
NORTH TEXAS HOURLY WEATHER ROUNDUP
NATIONAL WEATHER SERVICE FORT WORTH TX
400 PM CST THU FEB 23 2017

NOTE: "FAIR" INDICATES FEW OR NO CLOUDS BELOW 12,000 FEET WITH NO
SIGNIFICANT WEATHER AND/OR OBSTRUCTIONS TO VISIBILITY.

TXZ118-119-232300-
DALLAS/FORT WORTH METROPLEX

CITY           SKY/WX    TMP DP  RH WIND       PRES   REMARKS
DFW AIRPORT    SUNNY     87  48  25 S24       29.46F
DALLAS LOVE    SUNNY     87  46  24 S25G31    29.48F
FTW MEACHAM    SUNNY     89  48  24 S16G25    29.45F
DAL-EXECUTIVE  SUNNY     86  47  25 S21G29    29.49F
FTW-ALLIANCE   SUNNY     88  48  25 SE21      29.45F
FTW-NAS-JRB    SUNNY     90  49  24 S16       29.46F
FTW-SPINKS     SUNNY     88  48  25 SE22      29.49F
ARLINGTON      SUNNY     86  47  25 S20G31    29.48F
GRAND PRAIRIE  SUNNY     84  46  26 SE17G24   29.50F
ADDISON        SUNNY     84  46  26 S21G30    29.49F
MESQUITE       SUNNY     86  46  25 S18G29    29.51F
LANCASTER      SUNNY     83  50  31 S20G29    29.52F
$$

TXZ091>094-102>105-117-120-121-131>134-232300-
NORTH CENTRAL TEXAS

CITY           SKY/WX    TMP DP  RH WIND       PRES   REMARKS
SHRMAN/DENISON SUNNY     84  46  26 S24G31    29.47S
GAINESVILLE    SUNNY     83  48  29 SE22G28   29.45F
BOWIE          SUNNY     92  34  12 S14G22    29.43F
BRIDGEPORT     SUNNY     91  39  15 S16       29.46S
DECATUR        SUNNY     91  33  12 SW14G22   29.45F
DENTON         SUNNY     87  50  27 S23       29.46S
MCKINNEY       SUNNY     84  47  27 S29G38    29.47F
BONHAM         SUNNY     84  45  24 S26G33    29.48F
GREENVILLE     SUNNY     84  43  23 S23G30    29.52S
ROCKWALL       SUNNY     86  49  28 S24G33    29.51F
TERRELL        LGT RAIN  84  48  28 S22G32    29.53S
WAXAHACHIE     SUNNY     84  51  31 S23G30    29.52F
CLEBURNE       SUNNY     86  50  28 SE18      29.51S
GRANBURY       SUNNY     93  36  13 SW14      29.48S
$$

TXZ083>090-098>101-113>116-127>130-139>142-154-155-232300-
WESTERN NORTH TEXAS

CITY           SKY/WX    TMP DP  RH WIND       PRES   REMARKS
WICHITA FALLS  MOSUNNY   92  36  14 SW20G31   29.40F
WF-KICKAPOO    SUNNY     91  34  13 SW15G24   29.42S
VERNON         SUNNY     89  19   7 SW25G31   29.40F
ABILENE        SUNNY     89  29  11 SW18G28   29.50F
ABILENE-DYESS  SUNNY     89  34  14 W24G31    29.49S
BRECKENRIDGE   SUNNY     91  35  13 SW17      29.47S HAZE
CISCO          SUNNY     90  34  13 SW18G25   29.51S
RANGER         SUNNY     90  34  13 SW13G22   29.50F
MINERAL WELLS  SUNNY     93  30  10 SW16G23   29.44F
STEPHENVILLE   SUNNY     92  31  11 SW15      29.53S
COMANCHE       SUNNY     90  40  17 SW21      29.51F
BROWNWOOD      SUNNY     90  36  14 SW13      29.52F
COLEMAN        SUNNY     89  34  14 SW10G21   29.52F
$$

TXZ143>147-156>162-174-175-232300-
CENTRAL TEXAS

CITY           SKY/WX    TMP DP  RH WIND       PRES   REMARKS
WACO           SUNNY     83  51  33 S23       29.52F
WACO-MCGREGOR  SUNNY     84  55  36 S22G28    29.52F
HILLSBORO      SUNNY     84  53  34 S22G30    29.52F
CORSICANA      SUNNY     84  54  35 S22       29.55F
MEXIA          SUNNY     84  51  31 S21G33    29.54F
HEARNE         SUNNY     84  61  46 SE15G21   29.58F
CAMERON        SUNNY     86  53  32 S18G26    29.55F
TEMPLE         SUNNY     86  53  32 S24       29.53F
KILLEEN        SUNNY     88  43  20 S23G30    29.52F
KILLEEN-SKYLRK SUNNY     88  46  23 S24G30    29.53F
FORT HOOD      SUNNY     89  44  20 S18G25    29.50F
GATESVILLE     SUNNY     91  37  15 S23G30    29.52F
HAMILTON       SUNNY     91  38  15 SW16      29.53S
LAMPASAS       SUNNY     91  40  17 SW14G21   29.52F
$$

TXZ095>097-106>112-122>126-135>138-148>153-164>167-232300-
EAST TEXAS

CITY           SKY/WX    TMP DP  RH WIND       PRES   REMARKS
PARIS          SUNNY     84  48  28 S20G33    29.53S
SULPHUR SPRNGS SUNNY     84  47  27 S14G25    29.54F
MOUNT PLEASANT SUNNY     84  44  25 S16G28    29.57F
GILMER         SUNNY     82  51  34 S10G21    29.57F
MINEOLA        SUNNY     84  48  28 S13G25    29.54F
TYLER          SUNNY     84  47  27 S21G28    29.56F
LONGVIEW       SUNNY     83  52  34 S18G24    29.59F
MARSHALL       SUNNY     80  52  36 S14G21    29.63S
ATHENS         SUNNY     82  50  32 S16G25    29.54F
PALESTINE      SUNNY     84  49  30 SE17G25   29.59F
JACKSONVILLE   SUNNY     81  53  38 S15G22    29.62F
HENDERSON      SUNNY     83  51  33 S12G20    29.61F
CENTER         CLEAR     84  57  40 S10G20    29.66R
NACOGDOCHES    SUNNY     82  55  39 S14G24    29.62F
LUFKIN         SUNNY     80  56  43 S15       29.65F
$$

SUPPLEMENTAL OBSERVATIONS (CENTRAL)

CITY           SKY/WX    TMP DP  RH WIND       PRES   REMARKS
DENISON DAM      N/A     84  41  21 S15         N/A
CADDO GRASSLND   N/A     84  45  24 S21G30      N/A
PAT MAYSE LAKE   N/A     81  41  24 SE25        N/A
GREENVILLE       N/A     84  43  23 S20G30      N/A
CEDAR HILL       N/A     86  46  25 S17G25      N/A
ATHENS           N/A     84  46  26 S17G26      N/A
LAKE LIMESTONE   N/A     84  52  32 S17G26      N/A
MCGREGOR         N/A     84  52  32 S20G28      N/A
$$

SUPPLEMENTAL OBSERVATIONS (WEST)

CITY           SKY/WX    TMP DP  RH WIND       PRES   REMARKS
MILLERS CREEK    N/A     88  37  16 SW16G26     N/A
LBJ GRASSLAND    N/A     93  36  13 S12G20      N/A
COMANCHE         N/A     90  36  14 SW17G24     N/A
HAMBY            N/A     90  36  14 W21G28      N/A
IVIE RESERVOIR   N/A     91  32  12 SW17G24     N/A
COLORADO BEND    N/A     91  36  14 W12G21      N/A
$$

SUPPLEMENTAL OBSERVATIONS (EAST)

CITY           SKY/WX    TMP DP  RH WIND       PRES   REMARKS
CLARKSVILLE      N/A     84  46  26 S20G29      N/A
TEXARKANA        N/A     84  50  30 S9G17       N/A
LINDEN           N/A     84  50  30 S9G17       N/A
CADDO LAKE       N/A     84  52  32 SE6G17      N/A
GILMER           N/A     84  50  30 S16         N/A
HENDERSON        N/A     82  50  32 S14G25      N/A
LUFKIN           N/A     82  55  39 MISG        N/A
N SABINE NF      N/A     79  59  50 MISG        N/A
S SABINE NF      N/A     81  55  41 SE5         N/A
$$

SUPPLEMENTAL OBSERVATIONS ARE A COLLECTION OF AUTOMATED INSTRUMENTS
THAT ARE MAINTAINED BY A VARIETY OF FEDERAL AND STATE AGENCIES.
CERTAIN ELEMENTS...SUCH AS HUMIDITY VALUES AND SUSTAINED WIND
SPEEDS...MAY BE APPROXIMATED.





USA.gov is the U.S. government's official web portal to all federal, state and local government web resources and services.